Time,TemperatureF,DewpointF,PressureIn,WindDirection,WindDirectionDegrees,WindSpeedMPH,WindSpeedGustMPH,Humidity,HourlyPrecipIn,Conditions,Clouds,dailyrainin,SoftwareType,DateUTC
2013-02-21 00:00:00,24.7,19.4,29.77,ESE,112,1.0,4.0,80,0.00,,---,0.00,VWS V14.01,2013-02-21 05:00:00,
2013-02-21 00:01:00,24.7,19.1,29.77,South,182,0.0,4.0,79,0.00,,---,0.00,VWS V14.01,2013-02-21 05:01:00,
2013-02-21 00:06:00,24.7,19.1,29.77,WNW,292,1.0,8.0,79,0.00,,---,0.00,VWS V14.01,2013-02-21 05:06:00,
2013-02-21 00:11:00,24.8,18.9,29.77,NW,325,0.0,8.0,78,0.00,,---,0.00,VWS V14.01,2013-02-21 05:11:00,
2013-02-21 00:16:00,24.9,18.7,29.77,SW,236,3.0,8.0,77,0.00,,---,0.00,VWS V14.01,2013-02-21 05:16:00,
2013-02-21 00:21:00,25.1,18.9,29.78,WNW,285,1.0,8.0,77,0.00,,---,0.00,VWS V14.01,2013-02-21 05:21:00,
2013-02-21 00:26:00,25.1,18.9,29.78,WNW,285,0.0,8.0,77,0.00,,---,0.00,VWS V14.01,2013-02-21 05:26:00,
2013-02-21 00:31:00,25.1,18.9,29.78,West,263,0.0,1.0,77,0.00,,---,0.00,VWS V14.01,2013-02-21 05:31:00,
2013-02-21 00:36:00,25.1,18.9,29.78,West,263,0.0,1.0,77,0.00,,---,0.00,VWS V14.01,2013-02-21 05:36:00,
2013-02-21 00:41:00,25.1,18.9,29.78,West,274,2.0,3.0,77,0.00,,---,0.00,VWS V14.01,2013-02-21 05:41:00,
2013-02-21 00:46:00,25.0,19.1,29.78,West,274,0.0,3.0,78,0.00,,---,0.00,VWS V14.01,2013-02-21 05:46:00,
2013-02-21 00:51:00,25.0,18.8,29.78,WSW,244,0.0,3.0,77,0.00,,---,0.00,VWS V14.01,2013-02-21 05:51:00,
2013-02-21 00:56:00,24.9,18.7,29.78,WSW,246,0.0,3.0,77,0.00,,---,0.00,VWS V14.01,2013-02-21 05:56:00,
2013-02-21 01:01:00,24.9,18.7,29.78,West,267,0.0,1.0,77,0.00,,---,0.00,VWS V14.01,2013-02-21 06:01:00,
2013-02-21 01:06:00,24.9,18.7,29.78,West,267,0.0,1.0,77,0.00,,---,0.00,VWS V14.01,2013-02-21 06:06:00,
2013-02-21 01:11:00,24.9,18.7,29.78,West,267,0.0,1.0,77,0.00,,---,0.00,VWS V14.01,2013-02-21 06:11:00,
2013-02-21 01:16:00,24.8,18.6,29.78,West,267,0.0,1.0,77,0.00,,---,0.00,VWS V14.01,2013-02-21 06:16:00,
2013-02-21 01:21:00,24.7,18.2,29.78,SW,236,0.0,5.0,76,0.00,,---,0.00,VWS V14.01,2013-02-21 06:21:00,
2013-02-21 01:26:00,24.7,18.5,29.78,SSW,211,0.0,5.0,77,0.00,,---,0.00,VWS V14.01,2013-02-21 06:26:00,
2013-02-21 01:31:00,24.7,18.2,29.78,WNW,289,0.0,2.0,76,0.00,,---,0.00,VWS V14.01,2013-02-21 06:31:00,
2013-02-21 01:36:00,24.7,18.2,29.78,South,169,0.0,6.0,76,0.00,,---,0.00,VWS V14.01,2013-02-21 06:36:00,
2013-02-21 01:41:00,24.7,17.9,29.78,SW,225,1.0,6.0,75,0.00,,---,0.00,VWS V14.01,2013-02-21 06:41:00,
2013-02-21 01:46:00,24.7,17.9,29.78,West,271,1.0,6.0,75,0.00,,---,0.00,VWS V14.01,2013-02-21 06:46:00,
2013-02-21 01:51:00,24.6,18.1,29.79,NW,308,0.0,6.0,76,0.00,,---,0.00,VWS V14.01,2013-02-21 06:51:00,
2013-02-21 01:56:00,24.6,18.1,29.78,SW,215,1.0,6.0,76,0.00,,---,0.00,VWS V14.01,2013-02-21 06:56:00,
2013-02-21 02:01:00,24.5,18.0,29.79,WNW,284,1.0,3.0,76,0.00,,---,0.00,VWS V14.01,2013-02-21 07:01:00,
2013-02-21 02:07:00,24.5,18.0,29.79,West,270,1.0,3.0,76,0.00,,---,0.00,VWS V14.01,2013-02-21 07:07:00,
2013-02-21 02:12:00,24.4,17.9,29.79,SW,224,0.0,4.0,76,0.00,,---,0.00,VWS V14.01,2013-02-21 07:12:00,
2013-02-21 02:17:00,24.3,17.5,29.78,WNW,284,0.0,6.0,75,0.00,,---,0.00,VWS V14.01,2013-02-21 07:17:00,
2013-02-21 02:22:00,24.2,17.4,29.78,WNW,284,0.0,6.0,75,0.00,,---,0.00,VWS V14.01,2013-02-21 07:22:00,
2013-02-21 02:27:00,24.1,17.0,29.79,NW,304,2.0,6.0,74,0.00,,---,0.00,VWS V14.01,2013-02-21 07:27:00,
2013-02-21 02:32:00,23.9,16.8,29.79,West,280,1.0,5.0,74,0.00,,---,0.00,VWS V14.01,2013-02-21 07:32:00,
2013-02-21 02:37:00,23.8,16.1,29.79,ENE,67,2.0,5.0,72,0.00,,---,0.00,VWS V14.01,2013-02-21 07:37:00,
2013-02-21 02:42:00,23.8,15.8,29.79,WNW,295,0.0,6.0,71,0.00,,---,0.00,VWS V14.01,2013-02-21 07:42:00,
2013-02-21 02:47:00,23.8,15.8,29.78,NW,321,2.0,8.0,71,0.00,,---,0.00,VWS V14.01,2013-02-21 07:47:00,
2013-02-21 02:52:00,23.7,15.7,29.78,West,267,3.0,8.0,71,0.00,,---,0.00,VWS V14.01,2013-02-21 07:52:00,
2013-02-21 02:57:00,23.6,15.6,29.78,NW,305,0.0,8.0,71,0.00,,---,0.00,VWS V14.01,2013-02-21 07:57:00,
2013-02-21 03:02:00,23.4,15.1,29.78,SSW,209,3.0,6.0,70,0.00,,---,0.00,VWS V14.01,2013-02-21 08:02:00,
2013-02-21 03:07:00,23.3,15.0,29.78,NW,320,1.0,6.0,70,0.00,,---,0.00,VWS V14.01,2013-02-21 08:07:00,
2013-02-21 03:12:00,23.3,14.6,29.78,West,279,1.0,6.0,69,0.00,,---,0.00,VWS V14.01,2013-02-21 08:12:00,
2013-02-21 03:17:00,23.1,14.5,29.78,WNW,292,2.0,6.0,69,0.00,,---,0.00,VWS V14.01,2013-02-21 08:17:00,
2013-02-21 03:22:00,23.0,14.7,29.78,WNW,297,2.0,6.0,70,0.00,,---,0.00,VWS V14.01,2013-02-21 08:22:00,
2013-02-21 03:27:00,22.8,14.5,29.78,WNW,298,2.0,6.0,70,0.00,,---,0.00,VWS V14.01,2013-02-21 08:27:00,
2013-02-21 03:32:00,22.7,14.4,29.78,West,272,3.0,6.0,70,0.00,,---,0.00,VWS V14.01,2013-02-21 08:32:00,
2013-02-21 03:37:00,22.5,14.2,29.78,WNW,294,0.0,6.0,70,0.00,,---,0.00,VWS V14.01,2013-02-21 08:37:00,
2013-02-21 03:42:00,22.4,14.1,29.78,WNW,294,2.0,6.0,70,0.00,,---,0.00,VWS V14.01,2013-02-21 08:42:00,
2013-02-21 03:47:00,22.2,13.9,29.78,WSW,250,0.0,6.0,70,0.00,,---,0.00,VWS V14.01,2013-02-21 08:47:00,
2013-02-21 03:52:00,22.0,13.7,29.78,West,279,0.0,6.0,70,0.00,,---,0.00,VWS V14.01,2013-02-21 08:52:00,
2013-02-21 03:57:00,21.8,13.5,29.79,WNW,283,0.0,6.0,70,0.00,,---,0.00,VWS V14.01,2013-02-21 08:57:00,
2013-02-21 04:02:00,21.6,13.3,29.79,NW,310,1.0,3.0,70,0.00,,---,0.00,VWS V14.01,2013-02-21 09:02:00,
2013-02-21 04:07:00,21.5,13.2,29.78,NW,310,1.0,3.0,70,0.00,,---,0.00,VWS V14.01,2013-02-21 09:07:00,
2013-02-21 04:12:00,21.4,13.5,29.79,NW,309,0.0,3.0,71,0.00,,---,0.00,VWS V14.01,2013-02-21 09:12:00,
2013-02-21 04:17:00,21.3,13.4,29.79,NW,309,0.0,3.0,71,0.00,,---,0.00,VWS V14.01,2013-02-21 09:17:00,
2013-02-21 04:22:00,21.1,13.2,29.79,NW,315,0.0,5.0,71,0.00,,---,0.00,VWS V14.01,2013-02-21 09:22:00,
2013-02-21 04:27:00,21.0,13.1,29.79,NE,35,0.0,5.0,71,0.00,,---,0.00,VWS V14.01,2013-02-21 09:27:00,
2013-02-21 04:32:00,20.9,13.0,29.79,NE,35,0.0,0.0,71,0.00,,---,0.00,VWS V14.01,2013-02-21 09:32:00,
2013-02-21 04:37:00,20.9,13.0,29.79,NE,35,0.0,0.0,71,0.00,,---,0.00,VWS V14.01,2013-02-21 09:37:00,
2013-02-21 04:42:00,20.9,13.0,29.79,WNW,302,2.0,2.0,71,0.00,,---,0.00,VWS V14.01,2013-02-21 09:42:00,
2013-02-21 04:47:00,20.8,12.9,29.79,WNW,298,1.0,3.0,71,0.00,,---,0.00,VWS V14.01,2013-02-21 09:47:00,
2013-02-21 04:52:00,20.7,12.8,29.80,WNW,302,2.0,6.0,71,0.00,,---,0.00,VWS V14.01,2013-02-21 09:52:00,
2013-02-21 04:57:00,20.6,12.7,29.80,WNW,296,1.0,6.0,71,0.00,,---,0.00,VWS V14.01,2013-02-21 09:57:00,
2013-02-21 05:02:00,20.5,12.6,29.81,WNW,286,0.0,3.0,71,0.00,,---,0.00,VWS V14.01,2013-02-21 10:02:00,
2013-02-21 05:07:00,20.4,12.5,29.81,SW,224,1.0,4.0,71,0.00,,---,0.00,VWS V14.01,2013-02-21 10:07:00,
2013-02-21 05:12:00,20.4,12.5,29.81,WSW,250,4.0,7.0,71,0.00,,---,0.00,VWS V14.01,2013-02-21 10:12:00,
2013-02-21 05:17:00,20.4,12.5,29.82,NW,317,0.0,7.0,71,0.00,,---,0.00,VWS V14.01,2013-02-21 10:17:00,
2013-02-21 05:22:00,20.5,12.3,29.82,NW,318,0.0,7.0,70,0.00,,---,0.00,VWS V14.01,2013-02-21 10:22:00,
2013-02-21 05:27:00,20.5,12.6,29.82,NW,318,0.0,7.0,71,0.00,,---,0.00,VWS V14.01,2013-02-21 10:27:00,
2013-02-21 05:32:00,20.5,12.3,29.82,NW,307,0.0,1.0,70,0.00,,---,0.00,VWS V14.01,2013-02-21 10:32:00,
2013-02-21 05:37:00,20.5,12.6,29.82,WNW,296,2.0,3.0,71,0.00,,---,0.00,VWS V14.01,2013-02-21 10:37:00,
2013-02-21 05:42:00,20.5,12.6,29.83,WSW,254,0.0,4.0,71,0.00,,---,0.00,VWS V14.01,2013-02-21 10:42:00,
2013-02-21 05:47:00,20.5,12.6,29.83,SW,224,0.0,4.0,71,0.00,,---,0.00,VWS V14.01,2013-02-21 10:47:00,
2013-02-21 05:52:00,20.5,12.9,29.83,SW,223,0.0,4.0,72,0.00,,---,0.00,VWS V14.01,2013-02-21 10:52:00,
2013-02-21 05:57:00,20.5,12.9,29.83,WSW,240,1.0,4.0,72,0.00,,---,0.00,VWS V14.01,2013-02-21 10:57:00,
2013-02-21 06:02:00,20.4,12.8,29.83,WSW,240,0.0,3.0,72,0.00,,---,0.00,VWS V14.01,2013-02-21 11:02:00,
2013-02-21 06:07:00,20.4,12.8,29.84,WSW,246,0.0,3.0,72,0.00,,---,0.00,VWS V14.01,2013-02-21 11:07:00,
2013-02-21 06:12:00,20.4,13.1,29.84,WNW,288,0.0,3.0,73,0.00,,---,0.00,VWS V14.01,2013-02-21 11:12:00,
2013-02-21 06:17:00,20.3,13.0,29.84,WNW,288,1.0,3.0,73,0.00,,---,0.00,VWS V14.01,2013-02-21 11:17:00,
2013-02-21 06:22:00,20.3,13.0,29.84,WSW,250,1.0,3.0,73,0.00,,---,0.00,VWS V14.01,2013-02-21 11:22:00,
2013-02-21 06:27:00,20.2,12.9,29.84,West,276,1.0,3.0,73,0.00,,---,0.00,VWS V14.01,2013-02-21 11:27:00,
2013-02-21 06:32:00,20.1,12.5,29.84,West,273,1.0,4.0,72,0.00,,---,0.00,VWS V14.01,2013-02-21 11:32:00,
2013-02-21 06:37:00,19.9,12.0,29.85,NW,309,4.0,4.0,71,0.00,,---,0.00,VWS V14.01,2013-02-21 11:37:00,
2013-02-21 06:42:00,19.8,11.9,29.86,NW,304,1.0,4.0,71,0.00,,---,0.00,VWS V14.01,2013-02-21 11:42:00,
2013-02-21 06:47:00,19.7,11.5,29.85,West,271,0.0,5.0,70,0.00,,---,0.00,VWS V14.01,2013-02-21 11:47:00,
2013-02-21 06:52:00,19.6,11.1,29.86,NW,308,0.0,5.0,69,0.00,,---,0.00,VWS V14.01,2013-02-21 11:52:00,
2013-02-21 06:57:00,19.4,10.6,29.86,North,11,0.0,8.0,68,0.00,,---,0.00,VWS V14.01,2013-02-21 11:57:00,
2013-02-21 07:02:00,19.4,10.2,29.87,NE,54,1.0,4.0,67,0.00,,---,0.00,VWS V14.01,2013-02-21 12:02:00,
2013-02-21 07:07:00,19.4,10.2,29.87,ESE,103,1.0,4.0,67,0.00,,---,0.00,VWS V14.01,2013-02-21 12:07:00,
2013-02-21 07:12:00,19.4,10.2,29.87,NW,323,1.0,4.0,67,0.00,,---,0.00,VWS V14.01,2013-02-21 12:12:00,
2013-02-21 07:17:00,19.4,10.2,29.87,WNW,286,0.0,5.0,67,0.00,,---,0.00,VWS V14.01,2013-02-21 12:17:00,
2013-02-21 07:22:00,19.3,9.8,29.87,West,279,1.0,6.0,66,0.00,,---,0.00,VWS V14.01,2013-02-21 12:22:00,
2013-02-21 07:27:00,19.4,9.9,29.88,NW,323,3.0,6.0,66,0.00,,---,0.00,VWS V14.01,2013-02-21 12:27:00,
2013-02-21 07:32:00,19.3,9.5,29.88,NW,314,2.0,10.0,65,0.00,,---,0.00,VWS V14.01,2013-02-21 12:32:00,
2013-02-21 07:37:00,19.3,9.8,29.88,NW,318,3.0,10.0,66,0.00,,---,0.00,VWS V14.01,2013-02-21 12:37:00,
2013-02-21 07:42:00,19.3,9.8,29.89,WSW,256,0.0,10.0,66,0.00,,---,0.00,VWS V14.01,2013-02-21 12:42:00,
2013-02-21 07:47:00,19.3,9.8,29.89,WNW,299,1.0,10.0,66,0.00,,---,0.00,VWS V14.01,2013-02-21 12:47:00,
2013-02-21 07:52:00,19.4,9.6,29.89,NW,310,3.0,10.0,65,0.00,,---,0.00,VWS V14.01,2013-02-21 12:52:00,
2013-02-21 07:57:00,19.6,9.8,29.89,WNW,288,0.0,10.0,65,0.00,,---,0.00,VWS V14.01,2013-02-21 12:57:00,
2013-02-21 08:03:00,19.8,9.9,29.89,NW,315,1.0,7.0,65,0.00,,---,0.00,VWS V14.01,2013-02-21 13:03:00,
2013-02-21 08:08:00,20.0,10.5,29.89,WSW,246,3.0,7.0,66,0.00,,---,0.00,VWS V14.01,2013-02-21 13:08:00,
2013-02-21 08:13:00,20.1,10.2,29.89,NW,304,3.0,7.0,65,0.00,,---,0.00,VWS V14.01,2013-02-21 13:13:00,
2013-02-21 08:18:00,20.2,10.0,29.90,West,271,0.0,7.0,64,0.00,,---,0.00,VWS V14.01,2013-02-21 13:18:00,
2013-02-21 08:23:00,20.1,9.2,29.90,WNW,296,2.0,7.0,62,0.00,,---,0.00,VWS V14.01,2013-02-21 13:23:00,
2013-02-21 08:28:00,20.1,9.5,29.90,WNW,283,2.0,7.0,63,0.00,,---,0.00,VWS V14.01,2013-02-21 13:28:00,
2013-02-21 08:33:00,20.2,9.6,29.90,WNW,286,0.0,4.0,63,0.00,,---,0.00,VWS V14.01,2013-02-21 13:33:00,
2013-02-21 08:38:00,20.3,9.7,29.89,WNW,286,0.0,4.0,63,0.00,,---,0.00,VWS V14.01,2013-02-21 13:38:00,
2013-02-21 08:43:00,20.5,10.3,29.89,WNW,293,2.0,4.0,64,0.00,,---,0.00,VWS V14.01,2013-02-21 13:43:00,
2013-02-21 08:48:00,20.9,10.6,29.89,WNW,285,2.0,4.0,64,0.00,,---,0.00,VWS V14.01,2013-02-21 13:48:00,
2013-02-21 08:53:00,21.4,11.1,29.89,NW,306,2.0,4.0,64,0.00,,---,0.00,VWS V14.01,2013-02-21 13:53:00,
2013-02-21 08:58:00,21.8,10.8,29.88,WNW,289,2.0,6.0,62,0.00,,---,0.00,VWS V14.01,2013-02-21 13:58:00,
2013-02-21 09:03:00,22.3,10.9,29.88,West,259,3.0,4.0,61,0.00,,---,0.00,VWS V14.01,2013-02-21 14:03:00,
2013-02-21 09:08:00,22.8,11.0,29.89,West,279,1.0,5.0,60,0.00,,---,0.00,VWS V14.01,2013-02-21 14:08:00,
2013-02-21 09:13:00,23.3,11.1,29.89,West,278,0.0,5.0,59,0.00,,---,0.00,VWS V14.01,2013-02-21 14:13:00,
2013-02-21 09:18:00,24.0,11.8,29.89,WNW,290,2.0,5.0,59,0.00,,---,0.00,VWS V14.01,2013-02-21 14:18:00,
2013-02-21 09:23:00,24.8,12.1,29.90,NW,314,0.0,5.0,58,0.00,,---,0.00,VWS V14.01,2013-02-21 14:23:00,
2013-02-21 09:28:00,25.4,11.9,29.90,SSW,201,0.0,5.0,56,0.00,,---,0.00,VWS V14.01,2013-02-21 14:28:00,
2013-02-21 09:33:00,25.7,11.8,29.90,WNW,285,0.0,4.0,55,0.00,,---,0.00,VWS V14.01,2013-02-21 14:33:00,
2013-02-21 09:38:00,26.1,11.7,29.90,WSW,249,0.0,5.0,54,0.00,,---,0.00,VWS V14.01,2013-02-21 14:38:00,
2013-02-21 09:43:00,26.2,11.8,29.90,WNW,287,2.0,5.0,54,0.00,,---,0.00,VWS V14.01,2013-02-21 14:43:00,
2013-02-21 09:48:00,26.2,11.4,29.90,WSW,246,1.0,6.0,53,0.00,,---,0.00,VWS V14.01,2013-02-21 14:48:00,
2013-02-21 09:53:00,26.1,11.3,29.90,West,281,2.0,6.0,53,0.00,,---,0.00,VWS V14.01,2013-02-21 14:53:00,
2013-02-21 09:58:00,26.0,11.2,29.90,WSW,242,1.0,6.0,53,0.00,,---,0.00,VWS V14.01,2013-02-21 14:58:00,
2013-02-21 10:03:00,25.7,10.9,29.90,WSW,254,1.0,4.0,53,0.00,,---,0.00,VWS V14.01,2013-02-21 15:03:00,
2013-02-21 10:08:00,25.4,10.2,29.90,NW,309,3.0,7.0,52,0.00,,---,0.00,VWS V14.01,2013-02-21 15:08:00,
2013-02-21 10:13:00,25.2,10.9,29.91,West,259,0.0,7.0,54,0.00,,---,0.00,VWS V14.01,2013-02-21 15:13:00,
2013-02-21 10:18:00,25.0,10.7,29.90,WNW,290,0.0,7.0,54,0.00,,---,0.00,VWS V14.01,2013-02-21 15:18:00,
2013-02-21 10:23:00,25.1,11.2,29.90,WNW,299,2.0,7.0,55,0.00,,---,0.00,VWS V14.01,2013-02-21 15:23:00,
2013-02-21 10:28:00,25.3,11.8,29.91,WNW,283,4.0,7.0,56,0.00,,---,0.00,VWS V14.01,2013-02-21 15:28:00,
2013-02-21 10:33:00,25.5,11.6,29.90,NW,309,0.0,4.0,55,0.00,,---,0.00,VWS V14.01,2013-02-21 15:33:00,
2013-02-21 10:38:00,25.5,11.6,29.90,West,281,0.0,5.0,55,0.00,,---,0.00,VWS V14.01,2013-02-21 15:38:00,
2013-02-21 10:43:00,25.7,11.4,29.91,NW,304,3.0,5.0,54,0.00,,---,0.00,VWS V14.01,2013-02-21 15:43:00,
2013-02-21 10:48:00,25.7,12.2,29.91,WNW,292,3.0,5.0,56,0.00,,---,0.00,VWS V14.01,2013-02-21 15:48:00,
2013-02-21 10:53:00,25.8,12.3,29.91,NW,304,3.0,5.0,56,0.00,,---,0.00,VWS V14.01,2013-02-21 15:53:00,
2013-02-21 10:58:00,25.8,11.9,29.91,West,269,1.0,5.0,55,0.00,,---,0.00,VWS V14.01,2013-02-21 15:58:00,
2013-02-21 11:03:00,25.6,11.7,29.91,West,259,0.0,5.0,55,0.00,,---,0.00,VWS V14.01,2013-02-21 16:03:00,
2013-02-21 11:08:00,25.5,12.0,29.91,WNW,300,2.0,5.0,56,0.00,,---,0.00,VWS V14.01,2013-02-21 16:08:00,
2013-02-21 11:13:00,25.4,11.9,29.91,WSW,246,0.0,5.0,56,0.00,,---,0.00,VWS V14.01,2013-02-21 16:13:00,
2013-02-21 11:18:00,25.3,12.2,29.91,WNW,285,2.0,5.0,57,0.00,,---,0.00,VWS V14.01,2013-02-21 16:18:00,
2013-02-21 11:23:00,25.3,12.2,29.91,West,275,3.0,6.0,57,0.00,,---,0.00,VWS V14.01,2013-02-21 16:23:00,
2013-02-21 11:28:00,25.3,12.2,29.91,SW,227,3.0,7.0,57,0.00,,---,0.00,VWS V14.01,2013-02-21 16:28:00,
2013-02-21 11:33:00,25.5,12.4,29.91,West,278,3.0,5.0,57,0.00,,---,0.00,VWS V14.01,2013-02-21 16:33:00,
2013-02-21 11:38:00,25.7,12.6,29.91,WSW,242,3.0,5.0,57,0.00,,---,0.00,VWS V14.01,2013-02-21 16:38:00,
2013-02-21 11:43:00,25.8,12.7,29.91,WNW,302,3.0,7.0,57,0.00,,---,0.00,VWS V14.01,2013-02-21 16:43:00,
2013-02-21 11:48:00,26.2,12.7,29.91,WSW,244,4.0,7.0,56,0.00,,---,0.00,VWS V14.01,2013-02-21 16:48:00,
2013-02-21 11:53:00,26.7,12.7,29.91,NNE,24,2.0,7.0,55,0.00,,---,0.00,VWS V14.01,2013-02-21 16:53:00,
2013-02-21 11:58:00,27.2,14.4,29.91,WSW,254,2.0,8.0,58,0.00,,---,0.00,VWS V14.01,2013-02-21 16:58:00,
2013-02-21 12:03:00,27.9,13.8,29.91,NW,315,0.0,7.0,55,0.00,,---,0.00,VWS V14.01,2013-02-21 17:03:00,
2013-02-21 12:08:00,28.3,14.2,29.91,WNW,294,2.0,7.0,55,0.00,,---,0.00,VWS V14.01,2013-02-21 17:08:00,
2013-02-21 12:13:00,28.4,13.9,29.92,West,279,2.0,7.0,54,0.00,,---,0.00,VWS V14.01,2013-02-21 17:13:00,
2013-02-21 12:18:00,28.5,14.0,29.92,WSW,246,3.0,7.0,54,0.00,,---,0.00,VWS V14.01,2013-02-21 17:18:00,
2013-02-21 12:23:00,28.3,13.4,29.92,WNW,293,1.0,7.0,53,0.00,,---,0.00,VWS V14.01,2013-02-21 17:23:00,
2013-02-21 12:28:00,28.0,13.1,29.92,WNW,297,3.0,7.0,53,0.00,,---,0.00,VWS V14.01,2013-02-21 17:28:00,
2013-02-21 12:33:00,27.8,13.3,29.92,West,276,3.0,5.0,54,0.00,,---,0.00,VWS V14.01,2013-02-21 17:33:00,
2013-02-21 12:38:00,27.5,13.1,29.92,WNW,293,3.0,6.0,54,0.00,,---,0.00,VWS V14.01,2013-02-21 17:38:00,
2013-02-21 12:44:00,27.3,13.7,29.92,NNW,328,6.0,9.0,56,0.00,,---,0.00,VWS V14.01,2013-02-21 17:44:00,
2013-02-21 12:49:00,27.7,14.1,29.92,NNW,327,3.0,9.0,56,0.00,,---,0.00,VWS V14.01,2013-02-21 17:49:00,
2013-02-21 12:54:00,28.2,14.5,29.92,West,279,2.0,9.0,56,0.00,,---,0.00,VWS V14.01,2013-02-21 17:54:00,
2013-02-21 12:59:00,28.5,14.4,29.92,NNW,340,2.0,2.0,55,0.00,,---,0.00,VWS V14.01,2013-02-21 17:59:00,
2013-02-21 13:04:00,28.7,14.2,29.93,WNW,292,5.0,5.0,54,0.00,,---,0.00,VWS V14.01,2013-02-21 18:04:00,
2013-02-21 13:09:00,28.5,14.4,29.93,WSW,250,3.0,9.0,55,0.00,,---,0.00,VWS V14.01,2013-02-21 18:09:00,
2013-02-21 13:14:00,28.9,14.8,29.93,WNW,287,1.0,9.0,55,0.00,,---,0.00,VWS V14.01,2013-02-21 18:14:00,
2013-02-21 13:19:00,29.4,15.7,29.93,WNW,302,2.0,9.0,56,0.00,,---,0.00,VWS V14.01,2013-02-21 18:19:00,
2013-02-21 13:24:00,30.0,15.4,29.93,WNW,283,2.0,9.0,54,0.00,,---,0.00,VWS V14.01,2013-02-21 18:24:00,
2013-02-21 13:29:00,30.0,15.0,29.94,West,273,1.0,2.0,53,0.00,,---,0.00,VWS V14.01,2013-02-21 18:29:00,
2013-02-21 13:34:00,29.8,14.8,29.94,NNW,335,7.0,8.0,53,0.00,,---,0.00,VWS V14.01,2013-02-21 18:34:00,
2013-02-21 13:39:00,29.7,14.7,29.94,WNW,286,4.0,9.0,53,0.00,,---,0.00,VWS V14.01,2013-02-21 18:39:00,
2013-02-21 13:44:00,29.6,14.6,29.94,West,271,1.0,10.0,53,0.00,,---,0.00,VWS V14.01,2013-02-21 18:44:00,
2013-02-21 13:49:00,29.4,14.4,29.94,NW,317,1.0,10.0,53,0.00,,---,0.00,VWS V14.01,2013-02-21 18:49:00,
2013-02-21 13:54:00,29.3,15.1,29.94,NNW,327,2.0,10.0,55,0.00,,---,0.00,VWS V14.01,2013-02-21 18:54:00,
2013-02-21 13:59:00,29.4,14.8,29.95,WNW,299,1.0,3.0,54,0.00,,---,0.00,VWS V14.01,2013-02-21 18:59:00,
2013-02-21 14:04:00,29.3,14.3,29.95,South,181,1.0,6.0,53,0.00,,---,0.00,VWS V14.01,2013-02-21 19:04:00,
2013-02-21 14:09:00,29.2,15.1,29.95,WSW,249,0.0,6.0,55,0.00,,---,0.00,VWS V14.01,2013-02-21 19:09:00,
2013-02-21 14:14:00,29.4,15.2,29.95,WNW,302,3.0,6.0,55,0.00,,---,0.00,VWS V14.01,2013-02-21 19:14:00,
2013-02-21 14:19:00,29.7,15.1,29.96,NNE,29,0.0,6.0,54,0.00,,---,0.00,VWS V14.01,2013-02-21 19:19:00,
2013-02-21 14:24:00,29.9,15.7,29.96,NW,318,0.0,6.0,55,0.00,,---,0.00,VWS V14.01,2013-02-21 19:24:00,
2013-02-21 14:29:00,30.2,15.6,29.96,NNW,338,2.0,2.0,54,0.00,,---,0.00,VWS V14.01,2013-02-21 19:29:00,
2013-02-21 14:34:00,30.3,15.7,29.96,NW,309,4.0,8.0,54,0.00,,---,0.00,VWS V14.01,2013-02-21 19:34:00,
2013-02-21 14:39:00,30.2,15.1,29.97,NNW,327,2.0,8.0,53,0.00,,---,0.00,VWS V14.01,2013-02-21 19:39:00,
2013-02-21 14:44:00,30.1,15.5,29.97,NW,316,3.0,8.0,54,0.00,,---,0.00,VWS V14.01,2013-02-21 19:44:00,
2013-02-21 14:49:00,30.0,15.4,29.97,NW,317,7.0,10.0,54,0.00,,---,0.00,VWS V14.01,2013-02-21 19:49:00,
2013-02-21 14:54:00,29.8,14.8,29.97,NNW,335,4.0,10.0,53,0.00,,---,0.00,VWS V14.01,2013-02-21 19:54:00,
2013-02-21 14:59:00,29.6,15.0,29.97,NW,321,5.0,5.0,54,0.00,,---,0.00,VWS V14.01,2013-02-21 19:59:00,
2013-02-21 15:04:00,29.3,14.3,29.98,NW,306,2.0,10.0,53,0.00,,---,0.00,VWS V14.01,2013-02-21 20:04:00,
2013-02-21 15:09:00,29.0,14.4,29.98,NW,310,8.0,10.0,54,0.00,,---,0.00,VWS V14.01,2013-02-21 20:09:00,
2013-02-21 15:14:00,28.6,14.5,29.98,NW,305,3.0,10.0,55,0.00,,---,0.00,VWS V14.01,2013-02-21 20:14:00,
2013-02-21 15:19:00,28.4,14.7,29.98,WNW,291,4.0,10.0,56,0.00,,---,0.00,VWS V14.01,2013-02-21 20:19:00,
2013-02-21 15:24:00,28.3,15.0,29.99,WNW,290,0.0,10.0,57,0.00,,---,0.00,VWS V14.01,2013-02-21 20:24:00,
2013-02-21 15:29:00,28.2,15.3,29.99,NNE,28,2.0,3.0,58,0.00,,---,0.00,VWS V14.01,2013-02-21 20:29:00,
2013-02-21 15:34:00,28.2,14.9,30.00,NNW,338,1.0,6.0,57,0.00,,---,0.00,VWS V14.01,2013-02-21 20:34:00,
2013-02-21 15:39:00,28.2,15.7,30.00,NW,321,4.0,6.0,59,0.00,,---,0.00,VWS V14.01,2013-02-21 20:39:00,
2013-02-21 15:44:00,28.4,15.9,30.00,North,5,2.0,6.0,59,0.00,,---,0.00,VWS V14.01,2013-02-21 20:44:00,
2013-02-21 15:49:00,28.4,15.5,30.00,North,350,0.0,6.0,58,0.00,,---,0.00,VWS V14.01,2013-02-21 20:49:00,
2013-02-21 15:54:00,28.6,16.1,30.01,NNW,333,1.0,6.0,59,0.00,,---,0.00,VWS V14.01,2013-02-21 20:54:00,
2013-02-21 15:59:00,28.6,16.1,30.01,North,355,4.0,4.0,59,0.00,,---,0.00,VWS V14.01,2013-02-21 20:59:00,
2013-02-21 16:04:00,28.6,16.1,30.01,North,355,4.0,4.0,59,0.00,,---,0.00,VWS V14.01,2013-02-21 21:04:00,
2013-02-21 16:09:00,28.5,16.0,30.02,WNW,290,1.0,4.0,59,0.00,,---,0.00,VWS V14.01,2013-02-21 21:09:00,
2013-02-21 16:14:00,28.5,16.4,30.02,NW,305,2.0,8.0,60,0.00,,---,0.00,VWS V14.01,2013-02-21 21:14:00,
2013-02-21 16:19:00,28.4,16.3,30.03,NW,319,2.0,8.0,60,0.00,,---,0.00,VWS V14.01,2013-02-21 21:19:00,
2013-02-21 16:24:00,28.4,16.7,30.03,NNW,328,3.0,8.0,61,0.00,,---,0.00,VWS V14.01,2013-02-21 21:24:00,
2013-02-21 16:29:00,28.1,16.0,30.04,NNW,340,1.0,7.0,60,0.00,,---,0.00,VWS V14.01,2013-02-21 21:29:00,
2013-02-21 16:34:00,28.0,16.3,30.04,NW,320,4.0,7.0,61,0.00,,---,0.00,VWS V14.01,2013-02-21 21:34:00,
2013-02-21 16:39:00,27.9,16.2,30.04,NW,314,5.0,8.0,61,0.00,,---,0.00,VWS V14.01,2013-02-21 21:39:00,
2013-02-21 16:44:00,27.8,16.5,30.05,NW,311,3.0,8.0,62,0.00,,---,0.00,VWS V14.01,2013-02-21 21:44:00,
2013-02-21 16:50:00,27.6,16.7,30.05,NW,314,5.0,8.0,63,0.00,,---,0.00,VWS V14.01,2013-02-21 21:50:00,
2013-02-21 16:55:00,27.4,16.1,30.06,WNW,298,1.0,8.0,62,0.00,,---,0.00,VWS V14.01,2013-02-21 21:55:00,
2013-02-21 17:00:00,27.2,16.3,30.06,North,355,2.0,4.0,63,0.00,,---,0.00,VWS V14.01,2013-02-21 22:00:00,
2013-02-21 17:05:00,27.0,16.1,30.06,WSW,247,4.0,9.0,63,0.00,,---,0.00,VWS V14.01,2013-02-21 22:05:00,
2013-02-21 17:10:00,26.8,16.6,30.07,NNE,23,5.0,9.0,65,0.00,,---,0.00,VWS V14.01,2013-02-21 22:10:00,
2013-02-21 17:15:00,26.6,16.4,30.07,NW,311,5.0,10.0,65,0.00,,---,0.00,VWS V14.01,2013-02-21 22:15:00,
2013-02-21 17:20:00,26.4,16.2,30.08,North,11,5.0,10.0,65,0.00,,---,0.00,VWS V14.01,2013-02-21 22:20:00,
2013-02-21 17:25:00,26.2,16.4,30.08,NW,308,3.0,10.0,66,0.00,,---,0.00,VWS V14.01,2013-02-21 22:25:00,
2013-02-21 17:30:00,26.1,16.7,30.09,NNE,26,2.0,4.0,67,0.00,,---,0.00,VWS V14.01,2013-02-21 22:30:00,
2013-02-21 17:35:00,26.0,16.6,30.09,NNW,342,2.0,7.0,67,0.00,,---,0.00,VWS V14.01,2013-02-21 22:35:00,
2013-02-21 17:40:00,25.8,16.7,30.10,NNW,332,0.0,7.0,68,0.00,,---,0.00,VWS V14.01,2013-02-21 22:40:00,
2013-02-21 17:45:00,25.7,16.6,30.10,NW,319,5.0,8.0,68,0.00,,---,0.00,VWS V14.01,2013-02-21 22:45:00,
2013-02-21 17:50:00,25.6,16.5,30.10,ENE,68,0.0,8.0,68,0.00,,---,0.00,VWS V14.01,2013-02-21 22:50:00,
2013-02-21 17:55:00,25.5,16.8,30.10,North,360,1.0,8.0,69,0.00,,---,0.00,VWS V14.01,2013-02-21 22:55:00,
2013-02-21 18:00:00,25.4,16.7,30.10,NE,39,4.0,7.0,69,0.00,,---,0.00,VWS V14.01,2013-02-21 23:00:00,
2013-02-21 18:05:00,25.3,16.6,30.11,ENE,72,3.0,8.0,69,0.00,,---,0.00,VWS V14.01,2013-02-21 23:05:00,
2013-02-21 18:10:00,25.2,16.8,30.11,WNW,300,3.0,8.0,70,0.00,,---,0.00,VWS V14.01,2013-02-21 23:10:00,
2013-02-21 18:15:00,25.1,16.7,30.11,NE,49,0.0,8.0,70,0.00,,---,0.00,VWS V14.01,2013-02-21 23:15:00,
2013-02-21 18:20:00,25.0,16.6,30.12,NE,49,1.0,8.0,70,0.00,,---,0.00,VWS V14.01,2013-02-21 23:20:00,
2013-02-21 18:25:00,25.0,16.6,30.12,NW,319,1.0,8.0,70,0.00,,---,0.00,VWS V14.01,2013-02-21 23:25:00,
2013-02-21 18:30:00,25.0,16.6,30.12,ENE,78,4.0,4.0,70,0.00,,---,0.00,VWS V14.01,2013-02-21 23:30:00,
2013-02-21 18:35:00,25.0,16.6,30.12,ENE,67,0.0,6.0,70,0.00,,---,0.00,VWS V14.01,2013-02-21 23:35:00,
2013-02-21 18:40:00,25.0,16.9,30.13,ENE,69,2.0,6.0,71,0.00,,---,0.00,VWS V14.01,2013-02-21 23:40:00,
2013-02-21 18:45:00,25.1,17.0,30.13,NE,54,0.0,6.0,71,0.00,,---,0.00,VWS V14.01,2013-02-21 23:45:00,
2013-02-21 18:50:00,25.1,17.0,30.13,NNE,32,1.0,6.0,71,0.00,,---,0.00,VWS V14.01,2013-02-21 23:50:00,
2013-02-21 18:55:00,25.0,16.9,30.14,NNE,20,0.0,6.0,71,0.00,,---,0.00,VWS V14.01,2013-02-21 23:55:00,
2013-02-21 19:00:00,25.1,17.0,30.14,NE,48,1.0,4.0,71,0.00,,---,0.00,VWS V14.01,2013-02-22 00:00:00,
2013-02-21 19:05:00,25.0,16.9,30.14,NNE,26,0.0,5.0,71,0.00,,---,0.00,VWS V14.01,2013-02-22 00:05:00,
2013-02-21 19:10:00,25.0,16.9,30.14,NE,36,0.0,5.0,71,0.00,,---,0.00,VWS V14.01,2013-02-22 00:10:00,
2013-02-21 19:15:00,24.9,17.2,30.14,NE,46,1.0,5.0,72,0.00,,---,0.00,VWS V14.01,2013-02-22 00:15:00,
2013-02-21 19:20:00,24.8,17.1,30.14,NNW,333,1.0,5.0,72,0.00,,---,0.00,VWS V14.01,2013-02-22 00:20:00,
2013-02-21 19:25:00,24.8,17.1,30.14,NNE,16,0.0,6.0,72,0.00,,---,0.00,VWS V14.01,2013-02-22 00:25:00,
2013-02-21 19:30:00,24.7,17.0,30.14,NNW,348,0.0,4.0,72,0.00,,---,0.00,VWS V14.01,2013-02-22 00:30:00,
2013-02-21 19:35:00,24.6,17.2,30.15,WNW,296,2.0,4.0,73,0.00,,---,0.00,VWS V14.01,2013-02-22 00:35:00,
2013-02-21 19:40:00,24.7,17.3,30.14,NNE,23,1.0,13.0,73,0.00,,---,0.00,VWS V14.01,2013-02-22 00:40:00,
2013-02-21 19:45:00,24.8,17.7,30.14,NNW,346,0.0,13.0,74,0.00,,---,0.00,VWS V14.01,2013-02-22 00:45:00,
2013-02-21 19:50:00,24.9,17.8,30.15,NW,316,5.0,13.0,74,0.00,,---,0.00,VWS V14.01,2013-02-22 00:50:00,
2013-02-21 19:55:00,24.9,17.5,30.15,North,9,1.0,13.0,73,0.00,,---,0.00,VWS V14.01,2013-02-22 00:55:00,
2013-02-21 20:00:00,25.0,17.6,30.15,NNW,342,1.0,2.0,73,0.00,,---,0.00,VWS V14.01,2013-02-22 01:00:00,
2013-02-21 20:05:00,25.0,17.6,30.15,NE,45,1.0,4.0,73,0.00,,---,0.00,VWS V14.01,2013-02-22 01:05:00,
2013-02-21 20:10:00,24.9,17.5,30.16,North,355,0.0,5.0,73,0.00,,---,0.00,VWS V14.01,2013-02-22 01:10:00,
2013-02-21 20:15:00,24.9,17.8,30.16,North,349,2.0,10.0,74,0.00,,---,0.00,VWS V14.01,2013-02-22 01:15:00,
2013-02-21 20:20:00,25.0,17.9,30.16,NNW,348,2.0,10.0,74,0.00,,---,0.00,VWS V14.01,2013-02-22 01:20:00,
2013-02-21 20:25:00,25.1,18.0,30.16,NNW,346,2.0,10.0,74,0.00,,---,0.00,VWS V14.01,2013-02-22 01:25:00,
2013-02-21 20:30:00,25.1,18.0,30.17,NE,43,0.0,6.0,74,0.00,,---,0.00,VWS V14.01,2013-02-22 01:30:00,
2013-02-21 20:35:00,25.1,18.0,30.17,NNE,28,1.0,6.0,74,0.00,,---,0.00,VWS V14.01,2013-02-22 01:35:00,
2013-02-21 20:40:00,25.1,18.0,30.17,North,355,0.0,9.0,74,0.00,,---,0.00,VWS V14.01,2013-02-22 01:40:00,
2013-02-21 20:45:00,25.1,18.0,30.17,North,355,1.0,9.0,74,0.00,,---,0.00,VWS V14.01,2013-02-22 01:45:00,
2013-02-21 20:50:00,25.1,18.0,30.18,NE,35,1.0,9.0,74,0.00,,---,0.00,VWS V14.01,2013-02-22 01:50:00,
2013-02-21 20:55:00,25.1,18.0,30.18,NW,305,2.0,9.0,74,0.00,,---,0.00,VWS V14.01,2013-02-22 01:55:00,
2013-02-21 21:00:00,25.0,18.2,30.18,NNE,20,0.0,7.0,75,0.00,,---,0.00,VWS V14.01,2013-02-22 02:00:00,
2013-02-21 21:05:00,25.0,18.2,30.18,NE,54,4.0,7.0,75,0.00,,---,0.00,VWS V14.01,2013-02-22 02:05:00,
2013-02-21 21:10:00,25.1,18.3,30.17,NE,40,3.0,7.0,75,0.00,,---,0.00,VWS V14.01,2013-02-22 02:10:00,
2013-02-21 21:15:00,25.1,18.3,30.18,East,88,7.0,7.0,75,0.00,,---,0.00,VWS V14.01,2013-02-22 02:15:00,
2013-02-21 21:20:00,25.0,18.2,30.18,NE,36,1.0,9.0,75,0.00,,---,0.00,VWS V14.01,2013-02-22 02:20:00,
2013-02-21 21:25:00,24.9,18.1,30.18,NE,50,1.0,9.0,75,0.00,,---,0.00,VWS V14.01,2013-02-22 02:25:00,
2013-02-21 21:30:00,24.8,18.0,30.19,WNW,293,6.0,7.0,75,0.00,,---,0.00,VWS V14.01,2013-02-22 02:30:00,
2013-02-21 21:35:00,24.7,17.9,30.20,ENE,75,3.0,12.0,75,0.00,,---,0.00,VWS V14.01,2013-02-22 02:35:00,
2013-02-21 21:40:00,24.7,17.9,30.20,NNW,339,0.0,12.0,75,0.00,,---,0.00,VWS V14.01,2013-02-22 02:40:00,
2013-02-21 21:46:00,24.7,17.9,30.21,NNE,17,0.0,12.0,75,0.00,,---,0.00,VWS V14.01,2013-02-22 02:46:00,
2013-02-21 21:50:00,24.6,17.8,30.21,NNE,17,0.0,12.0,75,0.00,,---,0.00,VWS V14.01,2013-02-22 02:50:00,
2013-02-21 21:55:00,24.5,17.7,30.21,NE,42,0.0,12.0,75,0.00,,---,0.00,VWS V14.01,2013-02-22 02:55:00,
2013-02-21 22:01:00,24.5,17.7,30.22,NE,42,0.0,1.0,75,0.00,,---,0.00,VWS V14.01,2013-02-22 03:01:00,
2013-02-21 22:06:00,24.4,17.6,30.23,ENE,71,0.0,2.0,75,0.00,,---,0.00,VWS V14.01,2013-02-22 03:06:00,
2013-02-21 22:10:00,24.3,17.8,30.24,East,83,0.0,2.0,76,0.00,,---,0.00,VWS V14.01,2013-02-22 03:10:00,
2013-02-21 22:15:00,24.2,17.7,30.24,NNE,27,1.0,4.0,76,0.00,,---,0.00,VWS V14.01,2013-02-22 03:15:00,
2013-02-21 22:20:00,24.2,18.0,30.24,North,5,0.0,4.0,77,0.00,,---,0.00,VWS V14.01,2013-02-22 03:20:00,
2013-02-21 22:25:00,24.2,18.0,30.23,NE,37,2.0,4.0,77,0.00,,---,0.00,VWS V14.01,2013-02-22 03:25:00,
2013-02-21 22:30:00,24.2,18.0,30.23,ENE,68,3.0,5.0,77,0.00,,---,0.00,VWS V14.01,2013-02-22 03:30:00,
2013-02-21 22:35:00,24.4,18.2,30.23,East,82,0.0,5.0,77,0.00,,---,0.00,VWS V14.01,2013-02-22 03:35:00,
2013-02-21 22:40:00,24.4,18.2,30.24,East,82,0.0,5.0,77,0.00,,---,0.00,VWS V14.01,2013-02-22 03:40:00,
2013-02-21 22:45:00,24.5,18.3,30.25,ENE,65,0.0,5.0,77,0.00,,---,0.00,VWS V14.01,2013-02-22 03:45:00,
2013-02-21 22:50:00,24.5,18.3,30.25,ENE,63,0.0,5.0,77,0.00,,---,0.00,VWS V14.01,2013-02-22 03:50:00,
2013-02-21 22:56:00,24.6,18.4,30.25,NE,47,0.0,5.0,77,0.00,,---,0.00,VWS V14.01,2013-02-22 03:56:00,
2013-02-21 23:01:00,24.7,18.5,30.26,ENE,59,0.0,2.0,77,0.00,,---,0.00,VWS V14.01,2013-02-22 04:01:00,
2013-02-21 23:06:00,24.8,18.9,30.27,ENE,71,2.0,4.0,78,0.00,,---,0.00,VWS V14.01,2013-02-22 04:06:00,
2013-02-21 23:11:00,25.0,19.1,30.27,NE,43,2.0,4.0,78,0.00,,---,0.00,VWS V14.01,2013-02-22 04:11:00,
2013-02-21 23:16:00,25.2,19.3,30.26,NE,35,2.0,4.0,78,0.00,,---,0.00,VWS V14.01,2013-02-22 04:16:00,
2013-02-21 23:21:00,25.4,19.5,30.27,ENE,57,2.0,4.0,78,0.00,,---,0.00,VWS V14.01,2013-02-22 04:21:00,
2013-02-21 23:26:00,25.5,19.6,30.27,ENE,61,2.0,5.0,78,0.00,,---,0.00,VWS V14.01,2013-02-22 04:26:00,
2013-02-21 23:31:00,25.6,19.7,30.28,North,5,0.0,3.0,78,0.00,,---,0.00,VWS V14.01,2013-02-22 04:31:00,
2013-02-21 23:36:00,25.7,19.8,30.29,NNE,13,0.0,3.0,78,0.00,,---,0.00,VWS V14.01,2013-02-22 04:36:00,
2013-02-21 23:41:00,25.8,19.9,30.29,NNW,329,1.0,6.0,78,0.00,,---,0.00,VWS V14.01,2013-02-22 04:41:00,
2013-02-21 23:46:00,25.9,20.0,30.31,NW,309,2.0,6.0,78,0.00,,---,0.00,VWS V14.01,2013-02-22 04:46:00,
2013-02-21 23:51:00,26.1,20.2,30.31,NNW,334,4.0,6.0,78,0.00,,---,0.00,VWS V14.01,2013-02-22 04:51:00,
2013-02-21 23:56:00,26.2,20.3,30.30,NNW,328,7.0,7.0,78,0.00,,---,0.00,VWS V14.01,2013-02-22 04:56:00,